owner,sensor,date,latitude,longitude,vertical_datum,direction_of_sea_water_velocity,sea_water_speed,upward_sea_water_velocity,qcFlag 
TABS,ioos:station:wmo:42050:1,2008-10-01T00:00:00Z,28.8425,-94.2433,2.0,212.7636014,6.005414224,-99999.0,'11133222,11111222,99999999' 
TABS,ioos:station:wmo:42050:1,2008-10-01T00:30:00Z,28.8425,-94.2433,2.0,187.4588245,4.467807068,-99999.0,'11133222,11111222,99999999' 
TABS,ioos:station:wmo:42050:1,2008-10-01T01:00:00Z,28.8425,-94.2433,2.0,172.9429989,5.209462544,-99999.0,'11133222,11111222,99999999' 
TABS,ioos:station:wmo:42050:1,2008-10-01T01:30:00Z,28.8425,-94.2433,2.0,146.1060838,3.120208326,-99999.0,'11133222,11111222,99999999' 
TABS,ioos:station:wmo:42050:1,2008-10-01T02:00:00Z,28.8425,-94.2433,2.0,160.6335736,6.031260233,-99999.0,'11133222,11111222,99999999' 
TABS,ioos:station:wmo:42050:1,2008-10-01T02:30:00Z,28.8425,-94.2433,2.0,154.8123862,6.696723079,-99999.0,'11133222,11111222,99999999' 
TABS,ioos:station:wmo:42050:1,2008-10-01T03:00:00Z,28.8425,-94.2433,2.0,146.5344885,6.365233696,-99999.0,'11133222,11111222,99999999' 
TABS,ioos:station:wmo:42050:1,2008-10-01T03:30:00Z,28.8425,-94.2433,2.0,146.6796836,4.296242544,-99999.0,'11133222,11111222,99999999' 
TABS,ioos:station:wmo:42050:1,2008-10-01T04:00:00Z,28.8425,-94.2433,2.0,145.6742678,5.000929914,-99999.0,'11133222,11111222,99999999' 
TABS,ioos:station:wmo:42050:1,2008-10-01T04:30:00Z,28.8425,-94.2433,2.0,145.1874175,6.79638139,-99999.0,'11133222,11111222,99999999' 
TABS,ioos:station:wmo:42050:1,2008-10-01T05:00:00Z,28.8425,-94.2433,2.0,161.2940427,7.358702331,-99999.0,'11133222,11111222,99999999' 
TABS,ioos:station:wmo:42050:1,2008-10-01T05:30:00Z,28.8425,-94.2433,2.0,180.8371815,8.210876932,-99999.0,'11133222,11111222,99999999' 
TABS,ioos:station:wmo:42050:1,2008-10-01T06:00:00Z,28.8425,-94.2433,2.0,176.3937745,8.426683808,-99999.0,'11133222,11111222,99999999' 
TABS,ioos:station:wmo:42050:1,2008-10-01T06:30:00Z,28.8425,-94.2433,2.0,202.9171558,8.294727241,-99999.0,'11133222,11111222,99999999' 
TABS,ioos:station:wmo:42050:1,2008-10-01T07:00:00Z,28.8425,-94.2433,2.0,209.766607,9.688353833,-99999.0,'11133222,11111222,99999999' 
TABS,ioos:station:wmo:42050:1,2008-10-01T07:30:00Z,28.8425,-94.2433,2.0,213.5880615,10.9359316,-99999.0,'11111222,11111222,99999999' 
TABS,ioos:station:wmo:42050:1,2008-10-01T08:00:00Z,28.8425,-94.2433,2.0,204.9060602,11.89639441,-99999.0,'11111222,11111222,99999999' 
TABS,ioos:station:wmo:42050:1,2008-10-01T08:30:00Z,28.8425,-94.2433,2.0,224.3621684,14.61680198,-99999.0,'11111222,11111222,99999999' 
TABS,ioos:station:wmo:42050:1,2008-10-01T09:00:00Z,28.8425,-94.2433,2.0,229.0241299,17.93402353,-99999.0,'11111222,11111222,99999999' 
TABS,ioos:station:wmo:42050:1,2008-10-01T09:30:00Z,28.8425,-94.2433,2.0,226.7505344,17.8203395,-99999.0,'11111222,11111222,99999999' 
TABS,ioos:station:wmo:42050:1,2008-10-01T10:00:00Z,28.8425,-94.2433,2.0,226.3565443,19.11138404,-99999.0,'11111222,11111222,99999999' 
TABS,ioos:station:wmo:42050:1,2008-10-01T10:30:00Z,28.8425,-94.2433,2.0,227.4220515,19.90870413,-99999.0,'11111222,11111222,99999999' 
TABS,ioos:station:wmo:42050:1,2008-10-01T11:00:00Z,28.8425,-94.2433,2.0,227.4033865,18.04002494,-99999.0,'11111222,11111222,99999999' 
TABS,ioos:station:wmo:42050:1,2008-10-01T11:30:00Z,28.8425,-94.2433,2.0,229.2557011,21.34276927,-99999.0,'11111222,11111222,99999999' 
TABS,ioos:station:wmo:42050:1,2008-10-01T12:00:00Z,28.8425,-94.2433,2.0,231.0563576,19.56881192,-99999.0,'11111222,11111222,99999999' 
TABS,ioos:station:wmo:42050:1,2008-10-01T12:30:00Z,28.8425,-94.2433,2.0,234.0941482,22.81523175,-99999.0,'11111222,11111222,99999999' 
TABS,ioos:station:wmo:42050:1,2008-10-01T13:00:00Z,28.8425,-94.2433,2.0,226.8680134,20.17033713,-99999.0,'11111222,11111222,99999999' 
TABS,ioos:station:wmo:42050:1,2008-10-01T13:30:00Z,28.8425,-94.2433,2.0,231.1650236,38.38456591,-99999.0,'11111222,11111222,99999999' 
TABS,ioos:station:wmo:42050:1,2008-10-01T14:00:00Z,28.8425,-94.2433,2.0,235.8034845,32.02686529,-99999.0,'11111222,11111222,99999999' 
TABS,ioos:station:wmo:42050:1,2008-10-01T14:30:00Z,28.8425,-94.2433,2.0,242.009176,25.88826182,-99999.0,'11111222,11111222,99999999' 
TABS,ioos:station:wmo:42050:1,2008-10-01T15:00:00Z,28.8425,-94.2433,2.0,246.7592314,26.99004446,-99999.0,'11111222,11111222,99999999' 
TABS,ioos:station:wmo:42050:1,2008-10-01T15:30:00Z,28.8425,-94.2433,2.0,253.8472935,23.5808418,-99999.0,'11111222,11111222,99999999' 
TABS,ioos:station:wmo:42050:1,2008-10-01T16:00:00Z,28.8425,-94.2433,2.0,261.8147373,22.196092,-99999.0,'11111222,11111222,99999999' 
TABS,ioos:station:wmo:42050:1,2008-10-01T16:30:00Z,28.8425,-94.2433,2.0,266.3647807,19.55934559,-99999.0,'11111222,11111222,99999999' 
TABS,ioos:station:wmo:42050:1,2008-10-01T17:00:00Z,28.8425,-94.2433,2.0,268.2826316,20.35914045,-99999.0,'11111222,11111222,99999999' 
TABS,ioos:station:wmo:42050:1,2008-10-01T17:30:00Z,28.8425,-94.2433,2.0,268.0566238,19.76136129,-99999.0,'11111222,11111222,99999999' 
TABS,ioos:station:wmo:42050:1,2008-10-01T18:00:00Z,28.8425,-94.2433,2.0,265.0375165,19.42279331,-99999.0,'11111222,11111222,99999999' 
TABS,ioos:station:wmo:42050:1,2008-10-01T18:30:00Z,28.8425,-94.2433,2.0,276.3366527,16.03797057,-99999.0,'11111222,11111222,99999999' 
TABS,ioos:station:wmo:42050:1,2008-10-01T19:00:00Z,28.8425,-94.2433,2.0,273.5472663,16.97251013,-99999.0,'11111222,11111222,99999999' 
TABS,ioos:station:wmo:42050:1,2008-10-01T19:30:00Z,28.8425,-94.2433,2.0,275.9880829,16.87204789,-99999.0,'11111222,11111222,99999999' 
TABS,ioos:station:wmo:42050:1,2008-10-01T20:00:00Z,28.8425,-94.2433,2.0,270.6946792,17.33127231,-99999.0,'11111222,11111222,99999999' 
TABS,ioos:station:wmo:42050:1,2008-10-01T20:30:00Z,28.8425,-94.2433,2.0,276.2363468,16.38696128,-99999.0,'11111222,11111222,99999999' 
TABS,ioos:station:wmo:42050:1,2008-10-01T21:00:00Z,28.8425,-94.2433,2.0,276.0977844,14.5925529,-99999.0,'11111222,11111222,99999999' 
TABS,ioos:station:wmo:42050:1,2008-10-01T21:30:00Z,28.8425,-94.2433,2.0,274.5666896,14.9474446,-99999.0,'11111222,11111222,99999999' 
TABS,ioos:station:wmo:42050:1,2008-10-01T22:00:00Z,28.8425,-94.2433,2.0,267.4372037,12.3023006,-99999.0,'11111222,11111222,99999999' 
TABS,ioos:station:wmo:42050:1,2008-10-01T22:30:00Z,28.8425,-94.2433,2.0,269.0549714,12.13164869,-99999.0,'11111222,11111222,99999999' 
TABS,ioos:station:wmo:42050:1,2008-10-01T23:00:00Z,28.8425,-94.2433,2.0,263.8279537,10.51091813,-99999.0,'11111222,11111222,99999999' 
TABS,ioos:station:wmo:42050:1,2008-10-01T23:30:00Z,28.8425,-94.2433,2.0,266.83326,9.414371992,-99999.0,'11133222,11111222,99999999' 
TABS,ioos:station:wmo:42050:1,2008-10-02T00:00:00Z,28.8425,-94.2433,2.0,265.7567599,9.867041096,-99999.0,'11133222,11111222,99999999' 
TABS,ioos:station:wmo:42050:1,2008-10-02T00:30:00Z,28.8425,-94.2433,2.0,270.2396498,9.580083507,-99999.0,'11133222,11111222,99999999' 
TABS,ioos:station:wmo:42050:1,2008-10-02T01:00:00Z,28.8425,-94.2433,2.0,268.2831311,9.014044597,-99999.0,'11133222,11111222,99999999' 
TABS,ioos:station:wmo:42050:1,2008-10-02T01:30:00Z,28.8425,-94.2433,2.0,274.97015,8.542113322,-99999.0,'11133222,11111222,99999999' 
TABS,ioos:station:wmo:42050:1,2008-10-02T02:00:00Z,28.8425,-94.2433,2.0,269.3421169,6.100401626,-99999.0,'11133222,11111222,99999999' 
TABS,ioos:station:wmo:42050:1,2008-10-02T02:30:00Z,28.8425,-94.2433,2.0,281.5765251,7.175966834,-99999.0,'11133222,11111222,99999999' 
TABS,ioos:station:wmo:42050:1,2008-10-02T03:00:00Z,28.8425,-94.2433,2.0,279.9571382,6.477561269,-99999.0,'11133222,11111222,99999999' 
TABS,ioos:station:wmo:42050:1,2008-10-02T03:30:00Z,28.8425,-94.2433,2.0,294.858782,7.207808266,-99999.0,'11133222,11111222,99999999' 
TABS,ioos:station:wmo:42050:1,2008-10-02T04:00:00Z,28.8425,-94.2433,2.0,295.424538,6.289069884,-99999.0,'11133222,11111222,99999999' 
TABS,ioos:station:wmo:42050:1,2008-10-02T04:30:00Z,28.8425,-94.2433,2.0,310.3251358,4.944987361,-99999.0,'11133222,11111222,99999999' 
TABS,ioos:station:wmo:42050:1,2008-10-02T05:00:00Z,28.8425,-94.2433,2.0,318.0800433,3.816818046,-99999.0,'11133222,11111222,99999999' 
TABS,ioos:station:wmo:42050:1,2008-10-02T05:30:00Z,28.8425,-94.2433,2.0,325.0082721,3.906097797,-99999.0,'11133222,11111222,99999999' 
TABS,ioos:station:wmo:42050:1,2008-10-02T06:00:00Z,28.8425,-94.2433,2.0,302.5397193,3.867040212,-99999.0,'11133222,11111222,99999999' 
TABS,ioos:station:wmo:42050:1,2008-10-02T06:30:00Z,28.8425,-94.2433,2.0,316.6795117,2.171750446,-99999.0,'11133222,11111222,99999999' 
TABS,ioos:station:wmo:42050:1,2008-10-02T07:00:00Z,28.8425,-94.2433,2.0,325.209977,4.188758766,-99999.0,'11133222,11111222,99999999' 
TABS,ioos:station:wmo:42050:1,2008-10-02T07:30:00Z,28.8425,-94.2433,2.0,271.5393367,3.351208737,-99999.0,'11133222,11111222,99999999' 
TABS,ioos:station:wmo:42050:1,2008-10-02T08:00:00Z,28.8425,-94.2433,2.0,232.5407983,3.502185032,-99999.0,'11133222,11111222,99999999' 
TABS,ioos:station:wmo:42050:1,2008-10-02T08:30:00Z,28.8425,-94.2433,2.0,255.0981684,3.694238758,-99999.0,'11133222,11111222,99999999' 
TABS,ioos:station:wmo:42050:1,2008-10-02T09:00:00Z,28.8425,-94.2433,2.0,263.9056891,2.82596886,-99999.0,'11133222,11111222,99999999' 
TABS,ioos:station:wmo:42050:1,2008-10-02T09:30:00Z,28.8425,-94.2433,2.0,217.9950535,4.174805385,-99999.0,'11133222,11111222,99999999' 
TABS,ioos:station:wmo:42050:1,2008-10-02T10:00:00Z,28.8425,-94.2433,2.0,239.6523117,5.898177685,-99999.0,'11133222,11111222,99999999' 
TABS,ioos:station:wmo:42050:1,2008-10-02T10:30:00Z,28.8425,-94.2433,2.0,218.6200838,6.80917763,-99999.0,'11133222,11111222,99999999' 
TABS,ioos:station:wmo:42050:1,2008-10-02T11:00:00Z,28.8425,-94.2433,2.0,230.1257991,7.518330932,-99999.0,'11133222,11111222,99999999' 
TABS,ioos:station:wmo:42050:1,2008-10-02T11:30:00Z,28.8425,-94.2433,2.0,198.4526169,10.10980217,-99999.0,'11111222,11111222,99999999' 
TABS,ioos:station:wmo:42050:1,2008-10-02T12:00:00Z,28.8425,-94.2433,2.0,218.110666,10.43444776,-99999.0,'11111222,11111222,99999999' 
TABS,ioos:station:wmo:42050:1,2008-10-02T12:30:00Z,28.8425,-94.2433,2.0,217.7650246,14.20573476,-99999.0,'11111222,11111222,99999999' 
TABS,ioos:station:wmo:42050:1,2008-10-02T13:00:00Z,28.8425,-94.2433,2.0,217.0721112,15.27809543,-99999.0,'11111222,11111222,99999999' 
TABS,ioos:station:wmo:42050:1,2008-10-02T13:30:00Z,28.8425,-94.2433,2.0,224.701977,14.96965263,-99999.0,'11111222,11111222,99999999' 
TABS,ioos:station:wmo:42050:1,2008-10-02T14:00:00Z,28.8425,-94.2433,2.0,223.5802597,15.98551845,-99999.0,'11111222,11111222,99999999' 
TABS,ioos:station:wmo:42050:1,2008-10-02T14:30:00Z,28.8425,-94.2433,2.0,226.1518163,16.52842703,-99999.0,'11111222,11111222,99999999' 
TABS,ioos:station:wmo:42050:1,2008-10-02T15:00:00Z,28.8425,-94.2433,2.0,237.2830359,16.65172964,-99999.0,'11111222,11111222,99999999' 
TABS,ioos:station:wmo:42050:1,2008-10-02T15:30:00Z,28.8425,-94.2433,2.0,238.8137938,14.59978424,-99999.0,'11111222,11111222,99999999' 
TABS,ioos:station:wmo:42050:1,2008-10-02T16:00:00Z,28.8425,-94.2433,2.0,253.6519201,15.45481802,-99999.0,'11111222,11111222,99999999' 
TABS,ioos:station:wmo:42050:1,2008-10-02T16:30:00Z,28.8425,-94.2433,2.0,247.5830539,15.39317381,-99999.0,'11111222,11111222,99999999' 
TABS,ioos:station:wmo:42050:1,2008-10-02T17:00:00Z,28.8425,-94.2433,2.0,272.1966451,13.83015907,-99999.0,'11111222,11111222,99999999' 
TABS,ioos:station:wmo:42050:1,2008-10-02T17:30:00Z,28.8425,-94.2433,2.0,277.008791,14.0147137,-99999.0,'11111222,11111222,99999999' 
TABS,ioos:station:wmo:42050:1,2008-10-02T18:00:00Z,28.8425,-94.2433,2.0,287.9977673,14.07887069,-99999.0,'11111222,11111222,99999999' 
TABS,ioos:station:wmo:42050:1,2008-10-02T18:30:00Z,28.8425,-94.2433,2.0,295.1383464,14.00660201,-99999.0,'11111222,11111222,99999999' 
TABS,ioos:station:wmo:42050:1,2008-10-02T19:00:00Z,28.8425,-94.2433,2.0,302.5103073,13.60136023,-99999.0,'11111222,11111222,99999999' 
TABS,ioos:station:wmo:42050:1,2008-10-02T19:30:00Z,28.8425,-94.2433,2.0,306.7326777,14.16204081,-99999.0,'11111222,11111222,99999999' 
TABS,ioos:station:wmo:42050:1,2008-10-02T20:00:00Z,28.8425,-94.2433,2.0,321.1697344,14.67259009,-99999.0,'11111222,11111222,99999999' 
TABS,ioos:station:wmo:42050:1,2008-10-02T20:30:00Z,28.8425,-94.2433,2.0,324.6685725,15.19947696,-99999.0,'11111222,11111222,99999999' 
TABS,ioos:station:wmo:42050:1,2008-10-02T21:00:00Z,28.8425,-94.2433,2.0,330.5965756,15.62245179,-99999.0,'11111222,11111222,99999999' 
TABS,ioos:station:wmo:42050:1,2008-10-02T21:30:00Z,28.8425,-94.2433,2.0,345.9945738,13.63535478,-99999.0,'11111222,11111222,99999999' 
TABS,ioos:station:wmo:42050:1,2008-10-02T22:00:00Z,28.8425,-94.2433,2.0,343.1967491,12.10694429,-99999.0,'11111222,11111222,99999999' 
TABS,ioos:station:wmo:42050:1,2008-10-02T22:30:00Z,28.8425,-94.2433,2.0,348.1978039,13.00494137,-99999.0,'11111222,11111222,99999999' 
TABS,ioos:station:wmo:42050:1,2008-10-02T23:00:00Z,28.8425,-94.2433,2.0,353.6212482,13.05080074,-99999.0,'11111222,11111222,99999999' 
TABS,ioos:station:wmo:42050:1,2008-10-02T23:30:00Z,28.8425,-94.2433,2.0,357.9808284,10.21634475,-99999.0,'11111222,11111222,99999999' 
TABS,ioos:station:wmo:42050:1,2008-10-03T00:00:00Z,28.8425,-94.2433,2.0,352.1382795,9.065208216,-99999.0,'11133222,11111222,99999999' 
TABS,ioos:station:wmo:42050:1,2008-10-03T00:30:00Z,28.8425,-94.2433,2.0,7.106098858,7.4371231,-99999.0,'11133222,11111222,99999999' 
TABS,ioos:station:wmo:42050:1,2008-10-03T01:00:00Z,28.8425,-94.2433,2.0,23.26334156,5.823443998,-99999.0,'11133222,11111222,99999999' 
TABS,ioos:station:wmo:42050:1,2008-10-03T01:30:00Z,28.8425,-94.2433,2.0,25.94001853,5.738092017,-99999.0,'11133222,11111222,99999999' 
TABS,ioos:station:wmo:42050:1,2008-10-03T02:00:00Z,28.8425,-94.2433,2.0,40.61458763,4.716068278,-99999.0,'11133222,11111222,99999999' 
TABS,ioos:station:wmo:42050:1,2008-10-03T02:30:00Z,28.8425,-94.2433,2.0,75.08419144,2.369852316,-99999.0,'11133222,11111222,99999999' 
TABS,ioos:station:wmo:42050:1,2008-10-03T03:00:00Z,28.8425,-94.2433,2.0,59.16069118,4.740232062,-99999.0,'11133222,11111222,99999999' 
TABS,ioos:station:wmo:42050:1,2008-10-03T03:30:00Z,28.8425,-94.2433,2.0,57.61939801,5.340383881,-99999.0,'11133222,11111222,99999999' 
TABS,ioos:station:wmo:42050:1,2008-10-03T04:00:00Z,28.8425,-94.2433,2.0,48.88625621,4.486301372,-99999.0,'11133222,11111222,99999999' 
TABS,ioos:station:wmo:42050:1,2008-10-03T04:30:00Z,28.8425,-94.2433,2.0,41.98732477,4.305159695,-99999.0,'11133222,11111222,99999999' 
TABS,ioos:station:wmo:42050:1,2008-10-03T05:00:00Z,28.8425,-94.2433,2.0,34.80620698,5.553602434,-99999.0,'11133222,11111222,99999999' 
TABS,ioos:station:wmo:42050:1,2008-10-03T05:30:00Z,28.8425,-94.2433,2.0,55.3049276,5.217758139,-99999.0,'11133222,11111222,99999999' 
TABS,ioos:station:wmo:42050:1,2008-10-03T06:00:00Z,28.8425,-94.2433,2.0,59.23519551,5.434822904,-99999.0,'11133222,11111222,99999999' 
TABS,ioos:station:wmo:42050:1,2008-10-03T06:30:00Z,28.8425,-94.2433,2.0,41.09372013,4.670685175,-99999.0,'11133222,11111222,99999999' 
TABS,ioos:station:wmo:42050:1,2008-10-03T07:00:00Z,28.8425,-94.2433,2.0,53.76167813,3.992242478,-99999.0,'11133222,11111222,99999999' 
TABS,ioos:station:wmo:42050:1,2008-10-03T07:30:00Z,28.8425,-94.2433,2.0,26.46279454,5.004328127,-99999.0,'11133222,11111222,99999999' 
TABS,ioos:station:wmo:42050:1,2008-10-03T08:00:00Z,28.8425,-94.2433,2.0,49.59434782,3.178049716,-99999.0,'11133222,11111222,99999999' 
TABS,ioos:station:wmo:42050:1,2008-10-03T08:30:00Z,28.8425,-94.2433,2.0,86.44583008,3.226205201,-99999.0,'11133222,11111222,99999999' 
TABS,ioos:station:wmo:42050:1,2008-10-03T09:00:00Z,28.8425,-94.2433,2.0,89.33573242,3.450231876,-99999.0,'11133222,11111222,99999999' 
TABS,ioos:station:wmo:42050:1,2008-10-03T09:30:00Z,28.8425,-94.2433,2.0,113.1369501,3.664764658,-99999.0,'11133222,11111222,99999999' 
TABS,ioos:station:wmo:42050:1,2008-10-03T10:00:00Z,28.8425,-94.2433,2.0,142.2956345,2.060218435,-99999.0,'11133222,11111222,99999999' 
TABS,ioos:station:wmo:42050:1,2008-10-03T10:30:00Z,28.8425,-94.2433,2.0,180.438828,2.610076627,-99999.0,'11133222,11111222,99999999' 
TABS,ioos:station:wmo:42050:1,2008-10-03T11:00:00Z,28.8425,-94.2433,2.0,189.4620896,3.710485143,-99999.0,'11133222,11111222,99999999' 
TABS,ioos:station:wmo:42050:1,2008-10-03T11:30:00Z,28.8425,-94.2433,2.0,191.9577544,4.68159161,-99999.0,'11133222,11111222,99999999' 
TABS,ioos:station:wmo:42050:1,2008-10-03T12:00:00Z,28.8425,-94.2433,2.0,173.787982,4.436045536,-99999.0,'11133222,11111222,99999999' 
TABS,ioos:station:wmo:42050:1,2008-10-03T12:30:00Z,28.8425,-94.2433,2.0,193.4006252,6.342696587,-99999.0,'11133222,11111222,99999999' 
TABS,ioos:station:wmo:42050:1,2008-10-03T13:00:00Z,28.8425,-94.2433,2.0,194.7797357,5.605470542,-99999.0,'11133222,11111222,99999999' 
TABS,ioos:station:wmo:42050:1,2008-10-03T13:30:00Z,28.8425,-94.2433,2.0,207.1580555,6.046651966,-99999.0,'11133222,11111222,99999999' 
TABS,ioos:station:wmo:42050:1,2008-10-03T14:00:00Z,28.8425,-94.2433,2.0,194.8599276,7.252565063,-99999.0,'11133222,11111222,99999999' 
TABS,ioos:station:wmo:42050:1,2008-10-03T14:30:00Z,28.8425,-94.2433,2.0,202.6583367,6.826924637,-99999.0,'11133222,11111222,99999999' 
TABS,ioos:station:wmo:42050:1,2008-10-03T15:00:00Z,28.8425,-94.2433,2.0,211.2864446,7.606083092,-99999.0,'11133222,11111222,99999999' 
TABS,ioos:station:wmo:42050:1,2008-10-03T15:30:00Z,28.8425,-94.2433,2.0,225.6899599,6.45635346,-99999.0,'11133222,11111222,99999999' 
TABS,ioos:station:wmo:42050:1,2008-10-03T16:00:00Z,28.8425,-94.2433,2.0,234.6638473,3.959419149,-99999.0,'11133222,11111222,99999999' 
TABS,ioos:station:wmo:42050:1,2008-10-03T16:30:00Z,28.8425,-94.2433,2.0,289.2219451,2.764091171,-99999.0,'11133222,11111222,99999999' 
TABS,ioos:station:wmo:42050:1,2008-10-03T17:00:00Z,28.8425,-94.2433,2.0,290.2546205,2.888615585,-99999.0,'11133222,11111222,99999999' 
TABS,ioos:station:wmo:42050:1,2008-10-03T17:30:00Z,28.8425,-94.2433,2.0,321.9922247,4.530893952,-99999.0,'11133222,11111222,99999999' 
TABS,ioos:station:wmo:42050:1,2008-10-03T18:00:00Z,28.8425,-94.2433,2.0,352.5728619,6.111276462,-99999.0,'11133222,11111222,99999999' 
TABS,ioos:station:wmo:42050:1,2008-10-03T18:30:00Z,28.8425,-94.2433,2.0,14.71106691,8.033336791,-99999.0,'11133222,11111222,99999999' 
TABS,ioos:station:wmo:42050:1,2008-10-03T19:00:00Z,28.8425,-94.2433,2.0,7.364939482,8.893368316,-99999.0,'11133222,11111222,99999999' 
TABS,ioos:station:wmo:42050:1,2008-10-03T19:30:00Z,28.8425,-94.2433,2.0,10.51439479,11.01494439,-99999.0,'11111222,11111222,99999999' 
TABS,ioos:station:wmo:42050:1,2008-10-03T20:00:00Z,28.8425,-94.2433,2.0,20.8305493,9.53311072,-99999.0,'11133222,11111222,99999999' 
TABS,ioos:station:wmo:42050:1,2008-10-03T20:30:00Z,28.8425,-94.2433,2.0,27.67279305,10.87379419,-99999.0,'11111222,11111222,99999999' 
TABS,ioos:station:wmo:42050:1,2008-10-03T21:00:00Z,28.8425,-94.2433,2.0,26.41296966,13.46564889,-99999.0,'11111222,11111222,99999999' 
TABS,ioos:station:wmo:42050:1,2008-10-03T21:30:00Z,28.8425,-94.2433,2.0,29.21997403,14.48290371,-99999.0,'11111222,11111222,99999999' 
TABS,ioos:station:wmo:42050:1,2008-10-03T22:00:00Z,28.8425,-94.2433,2.0,29.17705423,15.01514236,-99999.0,'11111222,11111222,99999999' 
TABS,ioos:station:wmo:42050:1,2008-10-03T22:30:00Z,28.8425,-94.2433,2.0,38.74108356,14.33364224,-99999.0,'11111222,11111222,99999999' 
TABS,ioos:station:wmo:42050:1,2008-10-03T23:00:00Z,28.8425,-94.2433,2.0,42.10599519,11.48391919,-99999.0,'11111222,11111222,99999999' 
TABS,ioos:station:wmo:42050:1,2008-10-03T23:30:00Z,28.8425,-94.2433,2.0,46.75617312,10.84504034,-99999.0,'11111222,11111222,99999999' 
TABS,ioos:station:wmo:42050:1,2008-10-04T00:00:00Z,28.8425,-94.2433,2.0,57.58927656,10.18683464,-99999.0,'11111222,11111222,99999999' 
TABS,ioos:station:wmo:42050:1,2008-10-04T00:30:00Z,28.8425,-94.2433,2.0,55.45677921,7.636294913,-99999.0,'11133222,11111222,99999999' 
TABS,ioos:station:wmo:42050:1,2008-10-04T01:00:00Z,28.8425,-94.2433,2.0,54.67268392,6.018180788,-99999.0,'11133222,11111222,99999999' 
TABS,ioos:station:wmo:42050:1,2008-10-04T01:30:00Z,28.8425,-94.2433,2.0,64.5992571,7.483428359,-99999.0,'11133222,11111222,99999999' 
TABS,ioos:station:wmo:42050:1,2008-10-04T02:00:00Z,28.8425,-94.2433,2.0,73.8108316,4.196403222,-99999.0,'11133222,11111222,99999999' 
TABS,ioos:station:wmo:42050:1,2008-10-04T02:30:00Z,28.8425,-94.2433,2.0,72.52353969,5.860520455,-99999.0,'11133222,11111222,99999999' 
TABS,ioos:station:wmo:42050:1,2008-10-04T03:00:00Z,28.8425,-94.2433,2.0,67.94361805,5.006395909,-99999.0,'11133222,11111222,99999999' 
TABS,ioos:station:wmo:42050:1,2008-10-04T03:30:00Z,28.8425,-94.2433,2.0,60.67959269,4.186287138,-99999.0,'11133222,11111222,99999999' 
TABS,ioos:station:wmo:42050:1,2008-10-04T04:00:00Z,28.8425,-94.2433,2.0,74.11861119,3.690880654,-99999.0,'11133222,11111222,99999999' 
TABS,ioos:station:wmo:42050:1,2008-10-04T04:30:00Z,28.8425,-94.2433,2.0,81.49916853,2.841214529,-99999.0,'11133222,11111222,99999999' 
TABS,ioos:station:wmo:42050:1,2008-10-04T05:00:00Z,28.8425,-94.2433,2.0,92.34573905,4.153480468,-99999.0,'11133222,11111222,99999999' 
TABS,ioos:station:wmo:42050:1,2008-10-04T05:30:00Z,28.8425,-94.2433,2.0,51.5463807,3.039161068,-99999.0,'11133222,11111222,99999999' 
TABS,ioos:station:wmo:42050:1,2008-10-04T06:00:00Z,28.8425,-94.2433,2.0,46.79510777,4.96632661,-99999.0,'11133222,11111222,99999999' 
TABS,ioos:station:wmo:42050:1,2008-10-04T06:30:00Z,28.8425,-94.2433,2.0,63.29283842,3.604552677,-99999.0,'11133222,11111222,99999999' 
TABS,ioos:station:wmo:42050:1,2008-10-04T07:00:00Z,28.8425,-94.2433,2.0,41.68485497,4.646396453,-99999.0,'11133222,11111222,99999999' 
TABS,ioos:station:wmo:42050:1,2008-10-04T07:30:00Z,28.8425,-94.2433,2.0,52.91758975,4.312029684,-99999.0,'11133222,11111222,99999999' 
TABS,ioos:station:wmo:42050:1,2008-10-04T08:00:00Z,28.8425,-94.2433,2.0,64.57059273,6.544020171,-99999.0,'11133222,11111222,99999999' 
TABS,ioos:station:wmo:42050:1,2008-10-04T08:30:00Z,28.8425,-94.2433,2.0,86.1392764,4.90112232,-99999.0,'11133222,11111222,99999999' 
TABS,ioos:station:wmo:42050:1,2008-10-04T09:00:00Z,28.8425,-94.2433,2.0,96.93433269,2.236358647,-99999.0,'11133222,11111222,99999999' 
TABS,ioos:station:wmo:42050:1,2008-10-04T09:30:00Z,28.8425,-94.2433,2.0,106.9179733,2.508565327,-99999.0,'11133222,11111222,99999999' 
TABS,ioos:station:wmo:42050:1,2008-10-04T10:00:00Z,28.8425,-94.2433,2.0,111.1882962,1.909057359,-99999.0,'11133222,11111222,99999999' 
TABS,ioos:station:wmo:42050:1,2008-10-04T10:30:00Z,28.8425,-94.2433,2.0,139.8257935,3.782287668,-99999.0,'11133222,11111222,99999999' 
TABS,ioos:station:wmo:42050:1,2008-10-04T11:00:00Z,28.8425,-94.2433,2.0,135.5627023,3.599347163,-99999.0,'11133222,11111222,99999999' 
TABS,ioos:station:wmo:42050:1,2008-10-04T11:30:00Z,28.8425,-94.2433,2.0,139.7200207,4.640215512,-99999.0,'11133222,11111222,99999999' 
TABS,ioos:station:wmo:42050:1,2008-10-04T12:00:00Z,28.8425,-94.2433,2.0,153.5892358,8.295842332,-99999.0,'11133222,11111222,99999999' 
TABS,ioos:station:wmo:42050:1,2008-10-04T12:30:00Z,28.8425,-94.2433,2.0,180.0679175,8.410005945,-99999.0,'11133222,11111222,99999999' 
TABS,ioos:station:wmo:42050:1,2008-10-04T13:00:00Z,28.8425,-94.2433,2.0,179.8110072,6.070032949,-99999.0,'11133222,11111222,99999999' 
TABS,ioos:station:wmo:42050:1,2008-10-04T13:30:00Z,28.8425,-94.2433,2.0,188.9055145,8.462015126,-99999.0,'11133222,11111222,99999999' 
TABS,ioos:station:wmo:42050:1,2008-10-04T14:00:00Z,28.8425,-94.2433,2.0,189.0865753,6.521847898,-99999.0,'11133222,11111222,99999999' 
TABS,ioos:station:wmo:42050:1,2008-10-04T14:30:00Z,28.8425,-94.2433,2.0,192.2488843,9.332459483,-99999.0,'11133222,11111222,99999999' 
TABS,ioos:station:wmo:42050:1,2008-10-04T15:00:00Z,28.8425,-94.2433,2.0,206.1125283,9.065301981,-99999.0,'11133222,11111222,99999999' 
TABS,ioos:station:wmo:42050:1,2008-10-04T15:30:00Z,28.8425,-94.2433,2.0,224.8415551,7.686279984,-99999.0,'11133222,11111222,99999999' 
TABS,ioos:station:wmo:42050:1,2008-10-04T16:00:00Z,28.8425,-94.2433,2.0,228.7028064,7.773191108,-99999.0,'11133222,11111222,99999999' 